FW8741 Weather Reports


Display with metric or nautical units.
time (UTC)temp
F
wind
direction
speed
MPH
gust
MPH
rain 1hr
in
rain 24hr
in
rain mn
in
humidity
%
barometer
mb
20260510104552 50 0 0.0 0.0 0.00 0.04 0.00 97 1012.0
20260510103052 50 0 0.0 0.0 0.00 0.04 0.00 97 1011.9
20260510101553 50 0 0.0 0.0 0.00 0.04 0.00 97 1011.7
20260510100043 50 0 0.0 0.0 0.00 0.04 0.00 97 1011.5
20260510094540 50 0 0.0 0.0 0.00 0.04 0.00 97 1011.6
20260510093042 50 0 0.0 0.0 0.00 0.04 0.00 97 1011.6
20260510091548 50 0 0.0 0.0 0.00 0.04 0.00 97 1011.5
20260510090045 50 0 0.0 0.0 0.00 0.04 0.00 97 1011.4
20260510084543 50 0 0.0 1.0 0.00 0.04 0.00 97 1011.5
20260510083042 51 0 0.0 0.0 0.00 0.04 0.00 97 1011.6
20260510081539 51 0 0.0 1.0 0.00 0.04 0.00 97 1011.6
20260510080055 50 0 0.0 0.0 0.00 0.04 0.00 97 1011.9
20260510074556 50 0 0.0 1.0 0.00 0.04 0.00 97 1011.9
20260510073103 50 0 0.0 1.0 0.00 0.04 0.00 97 1012.0
20260510071541 50 0 0.0 2.0 0.00 0.04 0.00 97 1011.9
20260510070046 50 0 0.0 0.0 0.00 0.04 0.00 97 1011.3
20260510064607 50 0 0.0 1.0 0.00 0.04 0.00 97 1011.5
20260510063043 50 231 0.0 1.0 0.00 0.04 0.00 97 1011.5
20260510061552 50 0 0.0 0.0 0.00 0.04 0.00 97 1011.6
20260510060050 50 0 0.0 1.0 0.00 0.04 0.00 96 1011.7
20260510054548 50 0 0.0 0.0 0.00 0.04 0.00 97 1011.6
20260510053049 49 0 0.0 0.0 0.00 0.04 0.00 97 1011.5
20260510051551 49 0 0.0 2.0 0.00 0.04 0.00 97 1011.3
20260510050050 49 0 0.0 0.0 0.00 0.04 0.00 96 1011.2
20260510044543 48 0 0.0 0.0 0.00 0.05 0.00 96 1011.4
20260510043048 48 0 0.0 0.0 0.00 0.05 0.00 96 1011.4
20260510041545 48 0 0.0 1.0 0.00 0.05 0.00 96 1011.5
20260510040048 47 0 0.0 0.0 0.00 0.05 0.00 96 1011.5
20260510034609 47 0 0.0 0.0 0.00 0.05 0.05 96 1011.4
20260510033057 47 0 0.0 0.0 0.00 0.05 0.05 95 1011.3
20260510031546 48 0 0.0 0.0 0.00 0.05 0.05 96 1011.2
20260510030050 48 0 0.0 0.0 0.00 0.05 0.05 95 1011.3
20260510024548 49 0 0.0 0.0 0.00 0.05 0.05 95 1011.1
20260510023041 49 0 0.0 0.0 0.00 0.05 0.05 96 1011.2
20260510021558 50 0 0.0 0.0 0.00 0.05 0.05 95 1011.2
20260510020040 50 0 0.0 1.0 0.00 0.05 0.05 95 1011.1
20260510014551 51 0 0.0 1.0 0.00 0.05 0.05 95 1011.1
20260510013044 51 0 0.0 1.0 0.00 0.05 0.05 95 1011.0
20260510011549 51 0 0.0 1.0 0.00 0.05 0.05 95 1011.0
20260510010045 51 0 0.0 1.0 0.00 0.05 0.05 95 1010.8
20260510004549 51 0 0.0 1.0 0.00 0.05 0.05 94 1010.7
20260510003103 52 0 0.0 1.0 0.00 0.05 0.05 93 1010.4
20260510001551 53 258 0.0 1.0 0.00 0.05 0.05 92 1010.1
20260509234552 55 0 0.0 0.0 0.00 0.05 0.05 89 1010.2
20260509233050 57 0 0.0 0.0 0.00 0.05 0.05 88 1010.0
20260509231550 56 0 0.0 1.0 0.00 0.05 0.05 88 1009.8
20260509230044 57 0 0.0 1.0 0.00 0.05 0.05 87 1009.8
20260509224548 57 0 0.0 1.0 0.00 0.05 0.05 86 1010.0
20260509223049 58 0 0.0 1.0 0.00 0.05 0.05 84 1010.0
20260509221553 59 305 0.0 2.0 0.00 0.05 0.05 84 1009.9
20260509220048 59 222 0.0 2.0 0.00 0.05 0.05 85 1010.0
20260509214553 58 256 1.0 3.0 0.00 0.05 0.05 85 1010.0
20260509213050 57 219 1.0 2.0 0.00 0.05 0.05 90 1010.1
20260509211550 56 0 0.0 1.0 0.00 0.05 0.05 90 1010.3
20260509210048 56 0 0.0 2.0 0.00 0.05 0.05 91 1010.5
20260509204550 56 254 0.0 1.0 0.00 0.05 0.05 91 1010.4
20260509203042 55 221 0.0 3.0 0.00 0.05 0.05 92 1010.5
20260509201540 55 0 0.0 3.0 0.00 0.05 0.05 93 1010.5
20260509200056 54 0 0.0 2.0 0.00 0.05 0.05 93 1010.6
20260509194554 53 0 0.0 0.0 0.00 0.05 0.05 93 1011.0
20260509193042 53 307 0.0 1.0 0.00 0.05 0.05 92 1011.5
20260509191548 54 300 0.0 1.0 0.00 0.05 0.05 92 1011.6
20260509190048 54 0 0.0 2.0 0.00 0.05 0.05 92 1011.7
20260509184551 54 0 0.0 1.0 0.00 0.05 0.05 92 1011.7
20260509183059 54 309 0.0 1.0 0.01 0.05 0.05 91 1011.8
20260509181544 55 0 0.0 1.0 0.01 0.05 0.05 92 1011.7
20260509180041 55 0 0.0 1.0 0.01 0.05 0.05 92 1011.7
20260509174548 55 0 0.0 2.0 0.02 0.05 0.05 91 1011.6
20260509173046 55 300 0.0 1.0 0.02 0.04 0.04 90 1011.9
20260509171546 56 320 0.0 1.0 0.02 0.04 0.04 91 1011.8
20260509170044 56 303 0.0 2.0 0.02 0.04 0.04 90 1011.8
20260509164550 56 306 0.0 3.0 0.01 0.03 0.03 89 1011.7
20260509163050 56 0 0.0 2.0 0.00 0.02 0.02 89 1011.7
20260509161547 55 0 1.0 4.0 0.00 0.02 0.02 88 1011.9
20260509160047 55 321 0.0 1.0 0.00 0.02 0.02 88 1011.8
20260509154549 55 316 0.0 2.0 0.00 0.02 0.02 87 1012.0
20260509153049 55 0 0.0 3.0 0.01 0.02 0.02 87 1011.6
20260509151550 56 0 0.0 2.0 0.01 0.02 0.02 88 1012.1
20260509150044 55 0 0.0 2.0 0.01 0.02 0.02 87 1012.1
20260509144543 55 226 0.0 1.0 0.01 0.02 0.02 86 1012.1
20260509143054 55 0 0.0 1.0 0.00 0.01 0.01 85 1012.1
20260509141542 55 0 0.0 1.0 0.00 0.01 0.01 86 1011.9
20260509140059 56 233 0.0 2.0 0.00 0.01 0.01 85 1011.9
20260509134552 55 227 0.0 1.0 0.00 0.01 0.01 88 1011.7
20260509133047 54 195 0.0 1.0 0.00 0.01 0.01 90 1011.7
20260509131553 51 0 0.0 1.0 0.00 0.01 0.01 91 1012.1
20260509130049 51 0 0.0 1.0 0.00 0.01 0.01 91 1012.1
20260509124545 51 0 0.0 2.0 0.00 0.01 0.01 92 1012.1
20260509123109 50 0 0.0 0.0 0.00 0.01 0.01 94 1012.2
20260509121544 50 0 0.0 1.0 0.00 0.01 0.01 94 1012.3
20260509120045 49 0 0.0 0.0 0.00 0.01 0.01 94 1012.0
20260509114540 49 0 0.0 2.0 0.00 0.01 0.01 94 1012.2
20260509113051 49 249 0.0 2.0 0.00 0.01 0.01 94 1011.9
20260509111551 48 0 0.0 0.0 0.00 0.01 0.01 95 1011.6
20260509110045 48 0 0.0 2.0 0.00 0.01 0.01 94 1011.8